Change the Weather History Date:

Friday, October 18, 2013

  Actual Average Record
Temperature  
Mean Temperature 74 °F -  
Max Temperature 87 °F 63 °F 87 °F (2013)
Min Temperature 60 °F 48 °F 42 °F (2002)
Cooling Degree Days 8    
Growing Degree Days 24 (Base 50)    
Moisture  
Dew Point 55 °F    
Average Humidity 56    
Maximum Humidity 88    
Minimum Humidity 27    
Precipitation  
Precipitation 0.00 in - - ()
Sea Level Pressure  
Sea Level Pressure 29.81 in    
Wind  
Wind Speed 5 mph ()    
Max Wind Speed 18 mph    
Max Gust Speed 33 mph    
Averages and records for this station are not official NWS values.
T = Trace of Precipitation, MM = Missing Value Source: Averaged Metar Reports

Daily Weather History Graph

Daily Weather History Graph

Search for Another Location

Airport or City:

Trip Planner

Search our weather history database for the weather conditions in past years. The results will help you decide how hot, cold, wet, or windy it might be!

Date:

Astronomy

Oct. 18, 2013 Rise Set
Actual Time 8:29 AM CEST 7:23 PM CEST
Civil Twilight 8:00 AM CEST 7:52 PM CEST
Nautical Twilight 7:27 AM CEST 8:25 PM CEST
Astronomical Twilight 6:54 AM CEST 8:58 PM CEST
Moon 7:04 PM CEST (10/18) 7:49 AM CEST (10/18)
Length of Visible Light 11h 52m
Length of Day
10h 54m
Full, 100% of the Moon is Illuminated
Oct 18
Full
Oct 19
Full
Oct 27
Last Quarter
Nov 3
New
Nov 10
First Quarter

Hourly Weather History & Observations

Time (CEST) Temp. Heat Index Dew Point Humidity Pressure Visibility Wind Dir Wind Speed Gust Speed Precip Events Conditions
5:00 AM 64.4 °F - 59.0 °F 83% 29.83 in - Variable 3.5 mph - N/A   Clear
5:30 AM 60.8 °F - 57.2 °F 88% 29.83 in - Variable 2.3 mph - N/A   Clear
6:00 AM 62.6 °F - 57.2 °F 82% 29.83 in - Calm Calm - N/A   Clear
6:30 AM 60.8 °F - 57.2 °F 88% 29.83 in - Variable 1.2 mph - N/A   Clear
7:00 AM 66.2 °F - 57.2 °F 73% 29.83 in - East 4.6 mph - N/A   Clear
7:30 AM 68.0 °F - 55.4 °F 64% 29.83 in - SE 6.9 mph - N/A   Clear
8:00 AM 68.0 °F - 55.4 °F 64% 29.83 in - SSE 10.4 mph - N/A   Clear
8:30 AM 68.0 °F - 55.4 °F 64% 29.83 in - South 8.1 mph - N/A   Clear
9:00 AM 66.2 °F - 57.2 °F 73% 29.83 in - SE 10.4 mph - N/A   Clear
9:30 AM 68.0 °F - 57.2 °F 68% 29.83 in - SSE 5.8 mph - N/A   Clear
10:00 AM 71.6 °F - 55.4 °F 57% 29.83 in - SSE 6.9 mph - N/A   Clear
10:30 AM 75.2 °F - 55.4 °F 50% 29.83 in - South 12.7 mph 27.6 mph N/A   Clear
11:00 AM 77.0 °F - 53.6 °F 44% 29.83 in - SSE 10.4 mph - N/A   Clear
11:30 AM 78.8 °F - 53.6 °F 42% 29.83 in - South 5.8 mph - N/A   Clear
12:00 PM 80.6 °F 80.5 °F 55.4 °F 42% 29.83 in - Variable 3.5 mph - N/A   Clear
12:30 PM 82.4 °F - 51.8 °F 35% 29.83 in - SSW 9.2 mph - N/A   Clear
1:00 PM 82.4 °F - 51.8 °F 35% 29.83 in - SW 18.4 mph 33.4 mph N/A   Clear
1:30 PM 82.4 °F - 50.0 °F 32% 29.80 in - WSW 13.8 mph 25.3 mph N/A   Clear
2:00 PM 82.4 °F - 50.0 °F 32% 29.80 in - Variable 9.2 mph 21.9 mph N/A   Clear
2:30 PM 84.2 °F - 51.8 °F 33% 29.80 in - WSW 9.2 mph - N/A   Clear
3:00 PM 84.2 °F - 51.8 °F 33% 29.80 in - WSW 13.8 mph 33.4 mph N/A   Clear
3:30 PM 86.0 °F 84.2 °F 53.6 °F 33% 29.77 in - Variable 5.8 mph - N/A   Clear
4:00 PM 87.8 °F - 51.8 °F 29% 29.77 in - SW 9.2 mph - N/A   Clear
4:30 PM 87.8 °F - 50.0 °F 27% 29.77 in - SSW 4.6 mph - N/A   Clear
5:00 PM 86.0 °F - 48.2 °F 27% 29.77 in - SW 4.6 mph - N/A   Clear
5:30 PM 82.4 °F - 51.8 °F 35% 29.77 in - West 3.5 mph - N/A   Clear
6:00 PM 78.8 °F - 53.6 °F 42% 29.77 in - Calm Calm - N/A   Clear
6:30 PM 77.0 °F - 60.8 °F 57% 29.77 in - Variable 2.3 mph - N/A   Clear
7:00 PM 77.0 °F - 57.2 °F 50% 29.77 in - Variable 1.2 mph - N/A   Clear
7:30 PM 73.4 °F - 57.2 °F 57% 29.77 in - Variable 2.3 mph - N/A   Clear
8:00 PM 69.8 °F - 60.8 °F 73% 29.80 in - Variable 1.2 mph - N/A   Clear
8:30 PM 68.0 °F - 59.0 °F 73% 29.80 in - Calm Calm - N/A   Clear
9:00 PM 68.0 °F - 57.2 °F 68% 29.80 in - East 3.5 mph - N/A   Clear
9:30 PM 64.4 °F - 57.2 °F 77% 29.80 in - Variable 1.2 mph - N/A   Clear
10:00 PM 64.4 °F - 57.2 °F 77% 29.80 in - Variable 1.2 mph - N/A   Clear
10:30 PM 64.4 °F - 55.4 °F 73% 29.80 in - East 3.5 mph - N/A   Clear
11:00 PM 64.4 °F - 57.2 °F 77% 29.80 in - Variable 1.2 mph - N/A   Clear
11:30 PM 64.4 °F - 55.4 °F 73% 29.80 in - Variable 2.3 mph - N/A   Clear